timestamp,wind_dir_avg,wind_spd_avg,wind_spd_max_dir,wind_spd_gust,battery_voltage,lat,long
2021-02-12 00:04:01+00:00,287.0,12.74,291.0,15.59,12.49,47.59359,-54.27349
2021-02-12 00:14:01+00:00,292.0,14.36,295.0,16.55,12.49,47.59359,-54.27349
2021-02-12 00:24:01+00:00,288.0,13.63,276.0,15.86,12.49,47.59359,-54.27349
2021-02-12 00:34:01+00:00,289.0,11.82,286.0,15.54,12.49,47.59359,-54.27349
2021-02-12 00:44:01+00:00,294.0,13.41,299.0,15.98,12.49,47.59359,-54.27349
2021-02-12 00:54:01+00:00,300.0,13.63,293.0,15.98,12.49,47.59359,-54.27349
2021-02-12 01:04:01+00:00,290.0,14.17,287.0,17.58,12.49,47.59359,-54.27349
2021-02-12 01:14:01+00:00,290.0,10.91,292.0,14.58,12.49,47.59359,-54.27349
2021-02-12 01:24:01+00:00,288.0,12.33,297.0,15.16,12.49,47.59359,-54.27349
2021-02-12 01:34:01+00:00,290.0,12.77,290.0,14.89,12.49,47.59359,-54.27349
2021-02-12 01:44:01+00:00,294.0,13.96,293.0,16.17,12.49,47.59359,-54.27349
2021-02-12 01:54:01+00:00,286.0,10.44,288.0,13.96,12.49,47.59359,-54.27349
2021-02-12 02:04:01+00:00,280.0,12.75,282.0,14.86,12.49,47.59359,-54.27349
2021-02-12 02:14:01+00:00,279.0,8.78,272.0,11.52,12.41,47.59359,-54.27349
2021-02-12 02:24:01+00:00,275.0,9.21,271.0,11.09,12.41,47.59359,-54.27349
2021-02-12 02:34:01+00:00,282.0,11.06,285.0,14.96,12.41,47.59359,-54.27349
2021-02-12 02:44:01+00:00,282.0,11.24,295.0,14.77,12.41,47.59359,-54.27349
2021-02-12 02:54:01+00:00,281.0,11.22,285.0,14.45,12.41,47.59359,-54.27349
2021-02-12 03:04:01+00:00,277.0,10.42,277.0,12.93,12.41,47.59359,-54.27349
2021-02-12 03:14:01+00:00,285.0,9.06,289.0,13.68,12.41,47.59359,-54.27349
2021-02-12 03:24:01+00:00,286.0,11.01,286.0,13.86,12.41,47.59359,-54.27349
2021-02-12 03:34:01+00:00,294.0,13.34,295.0,15.37,12.41,47.59359,-54.27349
2021-02-12 03:44:01+00:00,286.0,11.58,289.0,15.08,12.41,47.59359,-54.27349
2021-02-12 03:54:01+00:00,296.0,11.49,292.0,15.37,12.41,47.59359,-54.27349
2021-02-12 04:04:01+00:00,292.0,13.83,295.0,15.74,12.41,47.59359,-54.27349
2021-02-12 04:14:01+00:00,297.0,12.47,294.0,15.86,12.41,47.59359,-54.27349
2021-02-12 04:24:01+00:00,298.0,15.2,302.0,17.06,12.41,47.59359,-54.27349
2021-02-12 04:34:01+00:00,298.0,15.29,302.0,19.35,12.41,47.59359,-54.27349
2021-02-12 04:44:01+00:00,297.0,14.63,302.0,16.83,12.41,47.59359,-54.27349
2021-02-12 04:54:01+00:00,296.0,13.68,295.0,15.97,12.41,47.59359,-54.27349
2021-02-12 05:04:01+00:00,294.0,14.44,303.0,17.7,12.41,47.59359,-54.27349
2021-02-12 05:14:01+00:00,299.0,14.54,302.0,16.73,12.41,47.59359,-54.27349
2021-02-12 05:24:01+00:00,294.0,13.49,304.0,16.49,12.41,47.59359,-54.27349
2021-02-12 05:34:01+00:00,299.0,15.06,302.0,16.45,12.41,47.59359,-54.27349
2021-02-12 05:44:01+00:00,298.0,14.82,303.0,16.9,12.41,47.59359,-54.27349
2021-02-12 05:54:01+00:00,299.0,15.22,299.0,17.12,12.41,47.59359,-54.27349
2021-02-12 06:04:01+00:00,300.0,15.34,301.0,17.05,12.41,47.59359,-54.27349
2021-02-12 06:14:01+00:00,302.0,15.65,303.0,18.02,12.33,47.59359,-54.27349
2021-02-12 06:24:01+00:00,301.0,15.33,303.0,17.09,12.33,47.59359,-54.27349
2021-02-12 06:34:01+00:00,303.0,15.84,309.0,17.72,12.33,47.59359,-54.27349
2021-02-12 06:44:01+00:00,296.0,14.29,303.0,16.58,12.33,47.59359,-54.27349
2021-02-12 06:54:01+00:00,293.0,13.89,297.0,15.74,12.33,47.59359,-54.27349
2021-02-12 07:04:01+00:00,301.0,15.43,307.0,17.14,12.33,47.59359,-54.27349
2021-02-12 07:14:01+00:00,293.0,14.74,298.0,17.13,12.33,47.59359,-54.27349
2021-02-12 07:24:01+00:00,304.0,15.53,307.0,17.91,12.33,47.59359,-54.27349
2021-02-12 07:34:01+00:00,299.0,14.3,301.0,17.11,12.33,47.59359,-54.27349
2021-02-12 07:44:01+00:00,305.0,15.82,315.0,18.95,12.33,47.59359,-54.27349
2021-02-12 07:54:01+00:00,303.0,14.91,305.0,17.78,12.33,47.59359,-54.27349
2021-02-12 08:04:01+00:00,303.0,16.0,300.0,19.38,12.33,47.59359,-54.27349
2021-02-12 08:14:01+00:00,303.0,14.46,306.0,17.04,12.33,47.59359,-54.27349
2021-02-12 08:24:01+00:00,305.0,14.92,303.0,17.35,12.33,47.59359,-54.27349
2021-02-12 08:34:01+00:00,303.0,14.0,303.0,16.57,12.33,47.59359,-54.27349
2021-02-12 08:44:01+00:00,302.0,13.69,303.0,16.15,12.33,47.59359,-54.27349
2021-02-12 08:54:01+00:00,313.0,12.67,301.0,15.78,12.33,47.59359,-54.27349
2021-02-12 09:04:01+00:00,311.0,11.39,300.0,14.79,12.33,47.59359,-54.27349
2021-02-12 09:14:01+00:00,315.0,10.67,306.0,14.84,12.33,47.59359,-54.27349
2021-02-12 09:24:01+00:00,312.0,10.93,302.0,15.41,12.33,47.59359,-54.27349
2021-02-12 09:34:01+00:00,310.0,10.78,302.0,14.78,12.33,47.59359,-54.27349
2021-02-12 09:44:01+00:00,316.0,10.75,322.0,12.89,12.33,47.59359,-54.27349
2021-02-12 09:54:01+00:00,319.0,11.5,319.0,13.64,12.33,47.59359,-54.27349
2021-02-12 10:04:01+00:00,325.0,10.84,327.0,13.88,12.33,47.59359,-54.27349
2021-02-12 10:14:01+00:00,322.0,11.04,325.0,12.98,12.33,47.59359,-54.27349
2021-02-12 10:24:01+00:00,331.0,11.14,340.0,13.61,12.33,47.59359,-54.27349
2021-02-12 10:34:01+00:00,326.0,10.62,329.0,12.02,12.33,47.59359,-54.27349
2021-02-12 10:44:01+00:00,327.0,9.65,330.0,10.94,12.33,47.59359,-54.27349
2021-02-12 10:54:01+00:00,338.0,10.8,343.0,11.71,12.33,47.59359,-54.27349
2021-02-12 11:04:01+00:00,340.0,10.27,339.0,11.64,12.33,47.59359,-54.27349
2021-02-12 11:14:01+00:00,340.0,10.67,339.0,11.97,12.33,47.59359,-54.27349
2021-02-12 11:24:01+00:00,344.0,11.95,347.0,13.26,12.33,47.59359,-54.27349
2021-02-12 11:34:01+00:00,345.0,10.74,345.0,12.04,12.33,47.59359,-54.27349
2021-02-12 11:44:01+00:00,346.0,10.75,327.0,13.88,12.33,47.59359,-54.27349
2021-02-12 11:54:01+00:00,351.0,11.87,354.0,13.68,12.33,47.59359,-54.27349
2021-02-12 12:04:01+00:00,353.0,10.64,351.0,12.07,12.33,47.59359,-54.27349
2021-02-12 12:14:01+00:00,352.0,10.43,348.0,11.83,12.73,47.59359,-54.27349
2021-02-12 12:24:01+00:00,358.0,10.83,358.0,11.91,12.73,47.59359,-54.27349
2021-02-12 12:34:01+00:00,0.0,10.24,5.0,12.69,12.73,47.59359,-54.27349
2021-02-12 12:44:01+00:00,1.0,10.6,1.0,12.18,12.73,47.59359,-54.27349
2021-02-12 12:54:01+00:00,359.0,11.53,352.0,14.51,12.73,47.59359,-54.27349
2021-02-12 13:04:01+00:00,359.0,10.43,5.0,11.77,12.73,47.59359,-54.27349
2021-02-12 13:14:01+00:00,357.0,11.78,358.0,13.18,13.68,47.59359,-54.27349
2021-02-12 13:24:01+00:00,0.0,11.18,10.0,13.68,13.68,47.59359,-54.27349
2021-02-12 13:34:01+00:00,354.0,9.97,358.0,11.2,13.68,47.59359,-54.27349
2021-02-12 13:44:01+00:00,358.0,10.2,353.0,11.39,13.68,47.59359,-54.27349
2021-02-12 13:54:01+00:00,356.0,10.62,344.0,13.08,13.68,47.59359,-54.27349
2021-02-12 14:04:01+00:00,0.0,9.41,6.0,11.64,13.68,47.59359,-54.27349
2021-02-12 14:14:01+00:00,1.0,12.31,3.0,14.26,13.76,47.59359,-54.27349
2021-02-12 14:24:01+00:00,1.0,11.65,359.0,13.58,13.76,47.59359,-54.27349
2021-02-12 14:34:01+00:00,14.0,13.88,15.0,16.24,13.76,47.59359,-54.27349
2021-02-12 14:44:01+00:00,12.0,12.17,21.0,14.12,13.76,47.59359,-54.27349
2021-02-12 14:54:01+00:00,6.0,12.16,358.0,15.04,13.76,47.59359,-54.27349
2021-02-12 15:04:01+00:00,8.0,10.79,6.0,12.23,13.76,47.59359,-54.27349
2021-02-12 15:14:01+00:00,9.0,9.87,5.0,12.02,13.76,47.59359,-54.27349
2021-02-12 15:24:01+00:00,2.0,12.14,358.0,14.94,13.76,47.59359,-54.27349
2021-02-12 15:34:01+00:00,1.0,11.9,1.0,14.0,13.76,47.59359,-54.27349
2021-02-12 15:44:01+00:00,2.0,12.95,358.0,14.36,13.76,47.59359,-54.27349
2021-02-12 15:54:01+00:00,4.0,13.16,3.0,15.02,13.76,47.59359,-54.27349
2021-02-12 16:04:01+00:00,2.0,10.68,1.0,12.43,13.76,47.59359,-54.27349
2021-02-12 16:14:01+00:00,0.0,10.85,3.0,13.13,13.68,47.59359,-54.27349
2021-02-12 16:24:01+00:00,359.0,12.59,2.0,14.42,13.68,47.59359,-54.27349
2021-02-12 16:34:01+00:00,1.0,13.19,1.0,15.0,13.68,47.59359,-54.27349
2021-02-12 16:44:01+00:00,352.0,12.23,351.0,13.07,13.68,47.59359,-54.27349
2021-02-12 16:54:01+00:00,1.0,11.19,3.0,12.62,13.68,47.59359,-54.27349
2021-02-12 17:04:01+00:00,2.0,12.64,2.0,14.8,13.68,47.59359,-54.27349
2021-02-12 17:14:01+00:00,359.0,12.15,353.0,13.96,13.84,47.59359,-54.27349
2021-02-12 17:24:01+00:00,1.0,13.38,2.0,15.73,13.84,47.59359,-54.27349
2021-02-12 17:34:01+00:00,358.0,14.98,357.0,16.78,13.84,47.59359,-54.27349
2021-02-12 17:44:01+00:00,359.0,14.14,351.0,17.14,13.84,47.59359,-54.27349
2021-02-12 17:54:01+00:00,356.0,14.02,3.0,17.12,13.84,47.59359,-54.27349
2021-02-12 18:04:01+00:00,5.0,13.56,15.0,15.86,13.84,47.59359,-54.27349
2021-02-12 19:14:01+00:00,344.0,12.79,351.0,15.72,13.68,47.59359,-54.27349
2021-02-12 19:24:01+00:00,1.0,13.27,2.0,15.9,13.68,47.59359,-54.27349
2021-02-12 19:34:01+00:00,355.0,12.39,356.0,14.91,13.68,47.59359,-54.27349
2021-02-12 19:44:01+00:00,348.0,12.63,345.0,14.56,13.68,47.59359,-54.27349
2021-02-12 19:54:01+00:00,342.0,13.09,332.0,15.63,13.68,47.59359,-54.27349
2021-02-12 20:04:01+00:00,345.0,13.4,344.0,17.01,13.68,47.59359,-54.27349
2021-02-12 20:14:01+00:00,336.0,13.8,330.0,16.81,13.13,47.59359,-54.27349
2021-02-12 20:24:01+00:00,353.0,12.4,348.0,14.52,13.13,47.59359,-54.27349
2021-02-12 20:34:01+00:00,351.0,14.84,341.0,17.52,13.13,47.59359,-54.27349
2021-02-12 20:44:01+00:00,343.0,15.07,333.0,18.71,13.13,47.59359,-54.27349
2021-02-12 20:54:01+00:00,341.0,12.63,330.0,16.41,13.13,47.59359,-54.27349
2021-02-12 21:04:01+00:00,344.0,12.16,344.0,13.98,13.13,47.59359,-54.27349
2021-02-12 21:14:01+00:00,340.0,12.09,327.0,13.93,12.65,47.59359,-54.27349
2021-02-12 21:24:01+00:00,338.0,11.43,348.0,13.54,12.65,47.59359,-54.27349
2021-02-12 21:34:01+00:00,332.0,15.37,335.0,17.96,12.65,47.59359,-54.27349
2021-02-12 21:44:01+00:00,336.0,14.13,328.0,16.91,12.65,47.59359,-54.27349
2021-02-12 21:54:01+00:00,340.0,12.27,322.0,15.32,12.65,47.59359,-54.27349
2021-02-12 22:04:01+00:00,353.0,15.65,356.0,19.58,12.65,47.59359,-54.27349
2021-02-12 22:14:01+00:00,342.0,11.42,332.0,13.51,12.57,47.59359,-54.27349
2021-02-12 22:24:01+00:00,334.0,12.86,327.0,16.04,12.57,47.59359,-54.27349
2021-02-12 22:34:01+00:00,336.0,12.32,333.0,15.36,12.57,47.59359,-54.27349
2021-02-12 22:44:01+00:00,343.0,12.04,326.0,13.95,12.57,47.59359,-54.27349
2021-02-12 22:54:01+00:00,328.0,11.97,334.0,14.99,12.57,47.59359,-54.27349
2021-02-12 23:04:01+00:00,338.0,13.81,327.0,16.56,12.57,47.59359,-54.27349
2021-02-12 23:14:01+00:00,339.0,12.47,332.0,14.59,12.57,47.59359,-54.27349
2021-02-12 23:24:01+00:00,336.0,10.83,321.0,12.18,12.57,47.59359,-54.27349
2021-02-12 23:34:01+00:00,338.0,11.26,327.0,13.47,12.57,47.59359,-54.27349
2021-02-12 23:44:01+00:00,336.0,12.48,327.0,15.6,12.57,47.59359,-54.27349
2021-02-12 23:54:01+00:00,337.0,11.52,325.0,14.68,12.57,47.59359,-54.27349
